Location: Devore Heights
(34.2372°N, 117.4156°W)
Time: 01:12:47
(UTC+00:00)

Altair - Pass Details

Date: 14 September 2024
Orbit: 1501 x 1682 km, 47.2° (Epoch: 09 October)

Event Time Altitude Azimuth Distance (km) Brightness Sun altitude
Exits shadow 12:02:59 21° 280° (W) 3,148 8.6 -19.0°
Maximum altitude 12:09:43 46° 343° (NNW) 2,147 8.2 -17.6°
Drops below altitude 10° 12:19:24 10° 55° (NE) 3,942 10.8 -15.7°
Sets 12:22:48 0° 61° (ENE) 4,922 11.8 -15.0°
